Pompano Beach, FL

9:17 AM EDT on September 27, 2016 (GMT -0400)
Pompano Beach

Weather History for KPMP - April, 2013

Change the Weather History Date:

Monday, April 8, 2013

  Actual Average Record
Temperature  
Mean Temperature 72 °F -  
Max Temperature 80 °F 83 °F 93 °F (1972)
Min Temperature 64 °F 64 °F 45 °F (1971)
Cooling Degree Days 6    
Growing Degree Days 22 (Base 50)    
Moisture  
Dew Point 60 °F    
Average Humidity 62    
Maximum Humidity 84    
Minimum Humidity 50    
Precipitation  
Precipitation 0.00 in - - ()
Sea Level Pressure  
Sea Level Pressure 30.10 in    
Wind  
Wind Speed 8 mph (East)    
Max Wind Speed 13 mph    
Max Gust Speed -    
Visibility 10 miles    
Events      
Averages and records for this station are not official NWS values.
T = Trace of Precipitation, MM = Missing Value Source: NWS Daily Summary

Daily Weather History Graph

Daily Weather History Graph

Search for Another Location

Airport or City:

Trip Planner

Search our weather history database for the weather conditions in past years. The results will help you decide how hot, cold, wet, or windy it might be!

Date:

Astronomy

Apr. 08, 2013 Rise Set
Actual Time 7:03 AM EDT 7:40 PM EDT
Civil Twilight 6:40 AM EDT 8:04 PM EDT
Nautical Twilight 6:13 AM EDT 8:31 PM EDT
Astronomical Twilight 5:45 AM EDT 8:59 PM EDT
Moon 5:44 AM EDT (4/8) 6:18 PM EDT (4/8)
Length of Visible Light 13h 23m
Length of Day
12h 36m
Waning Crescent, 3% of the Moon is Illuminated
Apr 8
Waning Crescent
Apr 10
New
Apr 18
First Quarter
Apr 25
Full
May 2
Last Quarter

Hourly Weather History & Observations

Time (EDT) Temp. Dew Point Humidity Pressure Visibility Wind Dir Wind Speed Gust Speed Precip Events Conditions
12:53 AM 72.0 °F 60.1 °F 66% 30.10 in 10.0 mi ESE 8.1 mph - N/A   Clear
1:53 AM 72.0 °F 60.1 °F 66% 30.08 in 10.0 mi East 8.1 mph - N/A   Clear
2:53 AM 71.1 °F 60.1 °F 68% 30.08 in 10.0 mi East 6.9 mph - N/A   Clear
3:53 AM 71.1 °F 59.0 °F 66% 30.07 in 10.0 mi East 4.6 mph - N/A   Clear
4:53 AM 70.0 °F 59.0 °F 68% 30.06 in 10.0 mi East 5.8 mph - N/A   Clear
5:53 AM 66.9 °F 59.0 °F 76% 30.06 in 10.0 mi East 3.5 mph - N/A   Clear
6:53 AM 64.9 °F 60.1 °F 84% 30.08 in 10.0 mi East 3.5 mph - N/A   Clear
7:53 AM 69.1 °F 62.1 °F 78% 30.10 in 10.0 mi Calm Calm - N/A   Clear
8:53 AM 75.9 °F 59.0 °F 56% 30.11 in 10.0 mi East 9.2 mph - N/A   Clear
9:53 AM 77.0 °F 57.9 °F 52% 30.12 in 10.0 mi ESE 10.4 mph - N/A   Clear
10:53 AM 77.0 °F 61.0 °F 58% 30.14 in 10.0 mi ESE 10.4 mph - N/A   Partly Cloudy
11:53 AM 78.1 °F 59.0 °F 52% 30.14 in 10.0 mi ESE 12.7 mph - N/A   Scattered Clouds
12:53 PM 79.0 °F 60.1 °F 52% 30.14 in 10.0 mi ESE 11.5 mph - N/A   Scattered Clouds
1:53 PM 79.0 °F 59.0 °F 50% 30.11 in 10.0 mi ESE 10.4 mph - N/A   Clear
2:53 PM 79.0 °F 60.1 °F 52% 30.09 in 10.0 mi East 10.4 mph - N/A   Scattered Clouds
3:53 PM 79.0 °F 60.1 °F 52% 30.09 in 10.0 mi East 11.5 mph - N/A   Clear
4:53 PM 77.0 °F 60.1 °F 56% 30.08 in 10.0 mi East 11.5 mph - N/A   Clear
5:53 PM 77.0 °F 60.1 °F 56% 30.08 in 10.0 mi East 8.1 mph - N/A   Clear
6:53 PM 75.9 °F 60.1 °F 58% 30.09 in 10.0 mi ENE 9.2 mph - N/A   Clear
7:53 PM 73.9 °F 61.0 °F 64% 30.10 in 10.0 mi East 6.9 mph - N/A   Partly Cloudy
8:53 PM 73.9 °F 61.0 °F 64% 30.11 in 10.0 mi East 9.2 mph - N/A   Partly Cloudy
9:53 PM 73.9 °F 61.0 °F 64% 30.13 in 10.0 mi East 9.2 mph - N/A   Clear
10:53 PM 73.9 °F 63.0 °F 68% 30.13 in 10.0 mi East 10.4 mph - N/A   Clear
11:53 PM 73.9 °F 64.0 °F 71% 30.14 in 10.0 mi East 9.2 mph - N/A   Clear